This demonstration page uses our WeatherBlox Daily Observations layout. Learn more.

Left ArrowRight Arrow

40.97296, -117.73568

Hourly Observations for August 5, 2020

Temp ( °F °C ) Dew Point ( °F °C ) Humidity (%) Winds ( mph kmh ) Pressure ( in mb ) Visibility ( mi km ) Precip ( " mm )
12:56 am 00:56 Clear 77 25 32 0 19 19 ENE 22 35 29.75 1008 10 16 0.00 0.00
1:56 am 01:56 Clear 75 23.9 32 0 21 21 ENE 21 33 29.75 1007 10 16 0.00 0.00
2:56 am 02:56 Clear 74 23.3 32 0 21 21 ENE 5 7 29.76 1008 10 16 0.00 0.00
3:56 am 03:56 Clear 67 19.4 32 0 27 27 NNW 6 9 29.78 1008 10 16 0.00 0.00
4:56 am 04:56 Clear 69 20.6 33 0.6 26 26 N 8 13 29.78 1008 10 16 0.00 0.00
5:56 am 05:56 Sunny 62 16.7 32 0 32 32 W 3 6 29.78 1009 10 16 0.00 0.00
6:56 am 06:56 Sunny 63 17.2 35 1.7 35 35 S 6 9 29.79 1009 10 16 0.00 0.00
7:56 am 07:56 Sunny 69 20.6 34 1.1 27 27 SE 3 6 29.80 1009 10 16 0.00 0.00
8:56 am 08:56 Sunny 79 26.1 32 0 18 18 SSW 5 7 29.78 1008 10 16 0.00 0.00
9:56 am 09:56 Sunny 84 28.9 32 0 15 15 Calm 29.78 1009 10 16 0.00 0.00
10:56 am 10:56 Sunny 87 30.6 31 -0.6 13 13 WNW 3 6 29.76 1008 10 16 0.00 0.00
11:56 am 11:56 Sunny 91 32.8 32 0 12 12 N 6 9 29.73 1007 10 16 0.00 0.00
12:56 pm 12:56 Sunny 93 33.9 32 0 11 11 WSW 6 9 29.70 1006 10 16 0.00 0.00
1:56 pm 13:56 Sunny 96 35.6 32 0 10 10 W 13 20 29.68 1005 10 16 0.00 0.00
2:56 pm 14:56 Sunny 96 35.6 30 -1.1 10 10 WSW 18 30 29.66 1004 10 16 0.00 0.00
3:56 pm 15:56 Sunny 93 33.9 29 -1.7 10 10 WSW 12 19 29.66 1004 10 16 0.00 0.00
4:56 pm 16:56 Sunny 96 35.6 30 -1.1 10 10 W 15 24 29.62 1003 10 16 0.00 0.00
5:56 pm 17:56 Mostly Sunny 95 35 30 -1.1 10 10 WSW 12 19 29.62 1003 10 16 0.00 0.00
6:56 pm 18:56 Sunny 92 33.3 28 -2.2 10 10 WNW 14 22 29.62 1003 10 16 0.00 0.00
7:56 pm 19:56 Sunny 86 30 23 -5 10 10 W 12 19 29.64 1004 10 16 0.00 0.00
8:56 pm 20:56 Clear 80 26.7 25 -3.9 13 13 WSW 12 19 29.66 1004 10 16 0.00 0.00
9:33 pm 21:33 Clear 79 26.1 37 2.8 22 22 NW 12 19 29.56 1001 10 16 0.00 0.00
9:56 pm 21:56 Clear 78 25.6 37 2.8 23 23 NW 6 9 29.70 1006 10 16 0.00 0.00
10:56 pm 22:56 Clear 76 24.4 37 2.8 24 24 W 6 9 29.70 1006 10 16 0.00 0.00
11:56 pm 23:56 Clear 72 22.2 38 3.3 29 29 NW 6 9 29.71 1006 10 16 0.00 0.00

Powered by AerisWeather